Location: Newark
(44.3248°N, 23.7839°E)
Time: 14:12:27
(UTC+00:00)

CAS-6 - Pass Details

Date: 30 April 2024
Orbit: 607 x 628 km, 97.8° (Epoch: 26 May)

Event Time Altitude Azimuth Distance (km) Brightness Sun altitude
Exits shadow 20:10:50 49° 63° (ENE) 804 ? -23.5°
Drops below altitude 10° 20:14:48 10° 358° (N) 1,981 ? -23.9°
Sets 20:17:01 0° 353° (N) 2,887 ? -24.1°
